| time (UTC) | temp F | wind direction | speed knots | gust knots | rain 1hr in | rain 24hr in | rain mn in | humidity % | barometer mb |
| 20260504050531 | 38 | 0 | 0.0 | 0.0 | 0.00 | 0.00 | 0.00 | 85 | 1010.2 |
| 20260504045531 | 37 | 0 | 0.0 | 0.0 | 0.00 | 0.00 | 0.00 | 85 | 1010.3 |
| 20260504045030 | 37 | 0 | 0.0 | 0.0 | 0.00 | 0.00 | 0.00 | 85 | 1010.4 |
| 20260504044551 | 37 | 0 | 0.0 | 0.0 | 0.00 | 0.00 | 0.00 | 85 | 1010.3 |
| 20260504044034 | 37 | 0 | 0.0 | 0.0 | 0.00 | 0.00 | 0.00 | 85 | 1010.4 |
| 20260504043531 | 37 | 0 | 0.0 | 0.0 | 0.00 | 0.00 | 0.00 | 85 | 1010.5 |
| 20260504043045 | 37 | 0 | 0.0 | 0.0 | 0.00 | 0.00 | 0.00 | 85 | 1010.5 |
| 20260504042531 | 37 | 0 | 0.0 | 0.0 | 0.00 | 0.00 | 0.00 | 85 | 1010.5 |
| 20260504042031 | 36 | 0 | 0.0 | 0.0 | 0.00 | 0.00 | 0.00 | 85 | 1010.5 |
| 20260504041549 | 36 | 0 | 0.0 | 0.0 | 0.00 | 0.00 | 0.00 | 86 | 1010.6 |
| 20260504041031 | 36 | 0 | 0.0 | 0.0 | 0.00 | 0.00 | 0.00 | 86 | 1010.7 |
| 20260504040531 | 36 | 0 | 0.0 | 0.0 | 0.00 | 0.00 | 0.00 | 86 | 1010.6 |
| 20260504035532 | 36 | 0 | 0.0 | 0.0 | 0.00 | 0.00 | 0.00 | 86 | 1010.6 |
| 20260504035030 | 35 | 0 | 0.0 | 0.0 | 0.00 | 0.00 | 0.00 | 86 | 1010.5 |
| 20260504034557 | 35 | 0 | 0.0 | 0.0 | 0.00 | 0.00 | 0.00 | 85 | 1010.5 |
| 20260504034031 | 35 | 0 | 0.0 | 0.0 | 0.00 | 0.00 | 0.00 | 85 | 1010.6 |
| 20260504033532 | 35 | 0 | 0.0 | 0.0 | 0.00 | 0.00 | 0.00 | 85 | 1010.5 |
| 20260504033124 | 35 | 0 | 0.0 | 0.0 | 0.00 | 0.00 | 0.00 | 85 | 1010.6 |
| 20260504032532 | 35 | 0 | 0.0 | 0.0 | 0.00 | 0.00 | 0.00 | 85 | 1010.7 |
| 20260504032031 | 35 | 0 | 0.0 | 0.0 | 0.00 | 0.00 | 0.00 | 85 | 1010.6 |
| 20260504031545 | 35 | 0 | 0.0 | 0.0 | 0.00 | 0.00 | 0.00 | 85 | 1010.7 |
| 20260504031030 | 35 | 0 | 0.0 | 0.0 | 0.00 | 0.00 | 0.00 | 84 | 1010.7 |
| 20260504030530 | 35 | 0 | 0.0 | 0.0 | 0.00 | 0.00 | 0.00 | 84 | 1010.7 |
| 20260504030048 | 35 | 0 | 0.0 | 0.0 | 0.00 | 0.00 | 0.00 | 84 | 1010.7 |
| 20260504025534 | 35 | 0 | 0.0 | 0.0 | 0.00 | 0.00 | 0.00 | 84 | 1010.7 |
| 20260504025030 | 35 | 0 | 0.0 | 0.0 | 0.00 | 0.00 | 0.00 | 83 | 1010.6 |
| 20260504024545 | 35 | 0 | 0.0 | 0.0 | 0.00 | 0.00 | 0.00 | 82 | 1010.6 |
| 20260504024030 | 35 | 0 | 0.0 | 0.0 | 0.00 | 0.00 | 0.00 | 82 | 1010.6 |
| 20260504023531 | 36 | 0 | 0.0 | 0.0 | 0.00 | 0.00 | 0.00 | 81 | 1010.6 |
| 20260504023059 | 36 | 0 | 0.0 | 0.0 | 0.00 | 0.00 | 0.00 | 81 | 1010.5 |
| 20260504022531 | 36 | 0 | 0.0 | 0.0 | 0.00 | 0.00 | 0.00 | 80 | 1010.5 |
| 20260504022031 | 36 | 0 | 0.0 | 0.0 | 0.00 | 0.00 | 0.00 | 79 | 1010.4 |
| 20260504021546 | 37 | 0 | 0.0 | 0.0 | 0.00 | 0.00 | 0.00 | 78 | 1010.3 |
| 20260504021030 | 37 | 0 | 0.0 | 0.0 | 0.00 | 0.00 | 0.00 | 78 | 1010.4 |
| 20260504020530 | 37 | 0 | 0.0 | 0.0 | 0.00 | 0.00 | 0.00 | 77 | 1010.5 |
| 20260504020049 | 37 | 0 | 0.0 | 0.0 | 0.00 | 0.00 | 0.00 | 77 | 1010.5 |
| 20260504015531 | 38 | 0 | 0.0 | 0.0 | 0.00 | 0.00 | 0.00 | 76 | 1010.5 |
| 20260504015036 | 38 | 0 | 0.0 | 0.0 | 0.00 | 0.00 | 0.00 | 75 | 1010.5 |
| 20260504014549 | 39 | 0 | 0.0 | 0.0 | 0.00 | 0.00 | 0.00 | 75 | 1010.4 |
| 20260504014031 | 39 | 0 | 0.0 | 0.0 | 0.00 | 0.00 | 0.00 | 75 | 1010.5 |
| 20260504013531 | 39 | 0 | 0.0 | 0.0 | 0.00 | 0.00 | 0.00 | 73 | 1010.4 |
| 20260504013046 | 40 | 0 | 0.0 | 0.0 | 0.00 | 0.00 | 0.00 | 72 | 1010.5 |
| 20260504012531 | 40 | 0 | 0.0 | 0.0 | 0.00 | 0.00 | 0.00 | 71 | 1010.3 |
| 20260504012031 | 40 | 0 | 0.0 | 0.0 | 0.00 | 0.00 | 0.00 | 71 | 1010.3 |
| 20260504011546 | 41 | 0 | 0.0 | 0.0 | 0.00 | 0.00 | 0.00 | 70 | 1010.3 |
| 20260504011030 | 41 | 0 | 0.0 | 0.0 | 0.00 | 0.00 | 0.00 | 68 | 1010.3 |
| 20260504010532 | 41 | 0 | 0.0 | 0.0 | 0.00 | 0.00 | 0.00 | 67 | 1010.1 |
| 20260504010053 | 42 | 0 | 0.0 | 0.0 | 0.00 | 0.00 | 0.00 | 67 | 1010.1 |
| 20260504005532 | 42 | 0 | 0.0 | 0.0 | 0.00 | 0.00 | 0.00 | 67 | 1010.0 |
| 20260504005032 | 43 | 0 | 0.0 | 0.0 | 0.00 | 0.00 | 0.00 | 65 | 1010.0 |
| 20260504004600 | 43 | 0 | 0.0 | 0.0 | 0.00 | 0.00 | 0.00 | 63 | 1009.9 |
| 20260504004033 | 43 | 0 | 0.0 | 0.0 | 0.00 | 0.00 | 0.00 | 63 | 1009.9 |
| 20260504003532 | 44 | 0 | 0.0 | 1.7 | 0.00 | 0.00 | 0.00 | 62 | 1009.8 |
| 20260504003042 | 44 | 0 | 0.0 | 1.7 | 0.00 | 0.00 | 0.00 | 61 | 1009.9 |
| 20260504002532 | 44 | 0 | 0.9 | 1.7 | 0.00 | 0.00 | 0.00 | 61 | 1009.9 |
| 20260504002032 | 45 | 242 | 0.0 | 2.6 | 0.00 | 0.00 | 0.00 | 59 | 1009.7 |
| 20260504001546 | 45 | 242 | 0.9 | 2.6 | 0.00 | 0.00 | 0.00 | 58 | 1009.7 |
| 20260504001032 | 46 | 242 | 0.9 | 4.3 | 0.00 | 0.00 | 0.00 | 57 | 1009.7 |
| 20260504000533 | 46 | 242 | 1.7 | 4.3 | 0.00 | 0.00 | 0.00 | 56 | 1009.7 |
| 20260504000049 | 47 | 218 | 0.0 | 4.3 | 0.00 | 0.00 | 0.00 | 55 | 1009.6 |
| 20260503235532 | 47 | 218 | 0.9 | 4.3 | 0.00 | 0.00 | 0.00 | 54 | 1009.6 |
| 20260503235032 | 47 | 13 | 0.9 | 3.5 | 0.00 | 0.00 | 0.00 | 53 | 1009.6 |
| 20260503234548 | 47 | 324 | 0.0 | 3.5 | 0.00 | 0.00 | 0.00 | 53 | 1009.6 |
| 20260503234032 | 47 | 323 | 1.7 | 3.5 | 0.00 | 0.00 | 0.00 | 53 | 1009.5 |
| 20260503233531 | 48 | 231 | 0.0 | 7.8 | 0.00 | 0.00 | 0.00 | 53 | 1009.6 |
| 20260503233042 | 48 | 223 | 0.9 | 7.8 | 0.00 | 0.00 | 0.00 | 52 | 1009.5 |
| 20260503232533 | 48 | 0 | 0.9 | 7.0 | 0.00 | 0.00 | 0.00 | 52 | 1009.5 |
| 20260503232032 | 48 | 255 | 2.6 | 11.3 | 0.00 | 0.00 | 0.00 | 51 | 1009.5 |
| 20260503231550 | 48 | 161 | 4.3 | 11.3 | 0.00 | 0.00 | 0.00 | 50 | 1009.6 |
| 20260503231033 | 49 | 301 | 2.6 | 9.6 | 0.00 | 0.00 | 0.00 | 49 | 1009.6 |
| 20260503230534 | 49 | 352 | 3.5 | 9.6 | 0.00 | 0.00 | 0.00 | 48 | 1009.4 |
| 20260503230044 | 49 | 43 | 0.0 | 6.1 | 0.00 | 0.00 | 0.00 | 48 | 1009.4 |
| 20260503225532 | 49 | 205 | 2.6 | 8.7 | 0.00 | 0.00 | 0.00 | 47 | 1009.3 |
| 20260503225034 | 49 | 243 | 3.5 | 8.7 | 0.00 | 0.00 | 0.00 | 46 | 1009.4 |
| 20260503224547 | 49 | 268 | 0.9 | 11.3 | 0.00 | 0.00 | 0.00 | 46 | 1009.2 |
| 20260503224032 | 49 | 298 | 2.6 | 11.3 | 0.00 | 0.00 | 0.00 | 46 | 1009.1 |
| 20260503223531 | 49 | 275 | 1.7 | 9.6 | 0.00 | 0.00 | 0.00 | 45 | 1009.2 |
| 20260503223051 | 49 | 211 | 3.5 | 9.6 | 0.00 | 0.00 | 0.00 | 44 | 1009.2 |
| 20260503222532 | 50 | 333 | 3.5 | 9.6 | 0.00 | 0.00 | 0.00 | 44 | 1009.1 |
| 20260503222031 | 50 | 201 | 0.9 | 7.0 | 0.00 | 0.00 | 0.00 | 44 | 1009.1 |
| 20260503221545 | 50 | 232 | 1.7 | 8.7 | 0.00 | 0.00 | 0.00 | 43 | 1009.1 |
| 20260503221032 | 50 | 217 | 1.7 | 8.7 | 0.00 | 0.00 | 0.00 | 41 | 1009.1 |
| 20260503220533 | 50 | 337 | 2.6 | 8.7 | 0.00 | 0.00 | 0.00 | 40 | 1009.0 |
| 20260503220046 | 50 | 11 | 1.7 | 10.4 | 0.00 | 0.00 | 0.00 | 40 | 1008.9 |
| 20260503215532 | 50 | 348 | 3.5 | 10.4 | 0.00 | 0.00 | 0.00 | 39 | 1008.9 |
| 20260503215031 | 50 | 159 | 2.6 | 11.3 | 0.00 | 0.00 | 0.00 | 39 | 1009.0 |
| 20260503214543 | 50 | 316 | 1.7 | 11.3 | 0.00 | 0.00 | 0.00 | 40 | 1008.9 |
| 20260503214033 | 50 | 69 | 1.7 | 9.6 | 0.00 | 0.00 | 0.00 | 39 | 1008.9 |
| 20260503213531 | 50 | 348 | 1.7 | 10.4 | 0.00 | 0.00 | 0.00 | 37 | 1008.8 |
| 20260503213100 | 50 | 325 | 1.7 | 11.3 | 0.00 | 0.00 | 0.00 | 38 | 1008.7 |
| 20260503212530 | 50 | 249 | 4.3 | 11.3 | 0.00 | 0.00 | 0.00 | 37 | 1008.7 |
| 20260503212032 | 50 | 250 | 4.3 | 10.4 | 0.00 | 0.00 | 0.00 | 37 | 1008.6 |
| 20260503211547 | 50 | 265 | 1.7 | 10.4 | 0.00 | 0.00 | 0.00 | 35 | 1008.7 |
| 20260503211032 | 50 | 304 | 6.1 | 10.4 | 0.00 | 0.00 | 0.00 | 35 | 1008.8 |
| 20260503210536 | 50 | 333 | 2.6 | 10.4 | 0.00 | 0.00 | 0.00 | 34 | 1008.7 |
| 20260503210054 | 51 | 19 | 4.3 | 13.9 | 0.00 | 0.00 | 0.00 | 34 | 1008.7 |
| 20260503205532 | 51 | 330 | 2.6 | 13.9 | 0.00 | 0.00 | 0.00 | 35 | 1008.7 |
| 20260503205032 | 51 | 71 | 4.3 | 12.2 | 0.00 | 0.00 | 0.00 | 32 | 1008.5 |
| 20260503204551 | 51 | 219 | 2.6 | 10.4 | 0.00 | 0.00 | 0.00 | 35 | 1008.5 |
| 20260503204031 | 50 | 219 | 2.6 | 12.2 | 0.00 | 0.00 | 0.00 | 35 | 1008.5 |
| 20260503203531 | 51 | 25 | 4.3 | 12.2 | 0.00 | 0.00 | 0.00 | 32 | 1008.6 |
| 20260503203047 | 51 | 281 | 6.1 | 12.2 | 0.00 | 0.00 | 0.00 | 33 | 1008.5 |
| 20260503202532 | 50 | 170 | 1.7 | 8.7 | 0.00 | 0.00 | 0.00 | 35 | 1008.7 |
| 20260503202031 | 50 | 5 | 2.6 | 12.2 | 0.00 | 0.00 | 0.00 | 35 | 1008.6 |
| 20260503201606 | 50 | 302 | 4.3 | 13.0 | 0.00 | 0.00 | 0.00 | 35 | 1008.6 |
| 20260503201031 | 51 | 237 | 5.2 | 13.0 | 0.00 | 0.00 | 0.00 | 33 | 1008.9 |
| 20260503200533 | 51 | 360 | 2.6 | 13.9 | 0.00 | 0.00 | 0.00 | 35 | 1008.8 |
| 20260503200054 | 50 | 178 | 1.7 | 13.9 | 0.00 | 0.00 | 0.00 | 35 | 1008.7 |
| 20260503195530 | 50 | 338 | 6.1 | 12.2 | 0.00 | 0.00 | 0.00 | 34 | 1008.9 |
| 20260503195032 | 50 | 355 | 5.2 | 10.4 | 0.00 | 0.00 | 0.00 | 37 | 1009.1 |
| 20260503194546 | 50 | 360 | 3.5 | 10.4 | 0.00 | 0.00 | 0.00 | 37 | 1009.0 |
| 20260503194031 | 50 | 304 | 3.5 | 9.6 | 0.00 | 0.00 | 0.00 | 38 | 1008.9 |
| 20260503193532 | 49 | 82 | 1.7 | 7.0 | 0.00 | 0.00 | 0.00 | 38 | 1009.1 |
| 20260503193051 | 48 | 92 | 1.7 | 9.6 | 0.00 | 0.00 | 0.00 | 38 | 1009.3 |
| 20260503192531 | 48 | 53 | 2.6 | 9.6 | 0.00 | 0.00 | 0.00 | 39 | 1009.4 |
| 20260503192031 | 48 | 5 | 2.6 | 9.6 | 0.00 | 0.00 | 0.00 | 39 | 1009.3 |
| 20260503191544 | 48 | 360 | 3.5 | 9.6 | 0.00 | 0.00 | 0.00 | 38 | 1009.4 |
| 20260503191032 | 49 | 238 | 2.6 | 7.8 | 0.00 | 0.00 | 0.00 | 38 | 1009.5 |
| 20260503190532 | 48 | 44 | 2.6 | 11.3 | 0.00 | 0.00 | 0.00 | 42 | 1009.5 |
| 20260503190044 | 48 | 63 | 3.5 | 11.3 | 0.00 | 0.00 | 0.00 | 40 | 1009.6 |
| 20260503185531 | 47 | 352 | 4.3 | 13.9 | 0.00 | 0.00 | 0.00 | 41 | 1009.5 |
| 20260503185033 | 47 | 325 | 3.5 | 13.9 | 0.00 | 0.00 | 0.00 | 42 | 1009.7 |
| 20260503184556 | 47 | 35 | 5.2 | 13.9 | 0.00 | 0.00 | 0.00 | 42 | 1009.6 |
| 20260503184032 | 47 | 65 | 4.3 | 13.9 | 0.00 | 0.00 | 0.00 | 42 | 1009.7 |
| 20260503183532 | 47 | 87 | 6.1 | 14.8 | 0.00 | 0.00 | 0.00 | 42 | 1009.9 |
| 20260503183101 | 47 | 81 | 5.2 | 14.8 | 0.00 | 0.00 | 0.00 | 41 | 1009.8 |
| 20260503182531 | 47 | 78 | 4.3 | 13.0 | 0.00 | 0.00 | 0.00 | 43 | 1009.8 |
| 20260503182032 | 46 | 51 | 5.2 | 13.0 | 0.00 | 0.00 | 0.00 | 45 | 1010.0 |
| 20260503181547 | 46 | 78 | 5.2 | 19.1 | 0.00 | 0.00 | 0.00 | 43 | 1009.8 |
| 20260503181031 | 46 | 107 | 3.5 | 19.1 | 0.00 | 0.00 | 0.00 | 43 | 1010.0 |
| 20260503180533 | 46 | 11 | 7.0 | 19.1 | 0.00 | 0.00 | 0.00 | 43 | 1010.0 |
| 20260503180045 | 45 | 58 | 2.6 | 7.8 | 0.00 | 0.00 | 0.00 | 43 | 1010.1 |
| 20260503175532 | 45 | 120 | 1.7 | 12.2 | 0.00 | 0.00 | 0.00 | 44 | 1010.1 |
| 20260503175030 | 45 | 257 | 1.7 | 12.2 | 0.00 | 0.00 | 0.00 | 43 | 1010.1 |
| 20260503174548 | 45 | 330 | 2.6 | 16.5 | 0.00 | 0.00 | 0.00 | 44 | 1010.2 |
| 20260503174032 | 44 | 76 | 4.3 | 16.5 | 0.00 | 0.00 | 0.00 | 48 | 1010.2 |
| 20260503173532 | 44 | 80 | 5.2 | 16.5 | 0.00 | 0.00 | 0.00 | 45 | 1010.3 |
| 20260503173110 | 44 | 57 | 5.2 | 11.3 | 0.00 | 0.00 | 0.00 | 47 | 1010.3 |
| 20260503172535 | 44 | 352 | 5.2 | 11.3 | 0.00 | 0.00 | 0.00 | 48 | 1010.2 |
| 20260503172031 | 43 | 105 | 3.5 | 10.4 | 0.00 | 0.00 | 0.00 | 48 | 1010.4 |
| 20260503171548 | 43 | 77 | 2.6 | 7.8 | 0.00 | 0.00 | 0.00 | 50 | 1010.4 |
| 20260503171033 | 43 | 37 | 3.5 | 13.9 | 0.00 | 0.00 | 0.00 | 50 | 1010.5 |
| 20260503170532 | 43 | 93 | 4.3 | 13.9 | 0.00 | 0.00 | 0.00 | 51 | 1010.6 |
| 20260503150531 | 40 | 260 | 5.2 | 12.2 | 0.00 | 0.00 | 0.00 | 52 | 1010.8 |
| 20260503131031 | 39 | 324 | 1.7 | 10.4 | 0.00 | 0.00 | 0.00 | 67 | 1011.5 |
| 20260503130531 | 38 | 23 | 5.2 | 14.8 | 0.00 | 0.00 | 0.00 | 66 | 1011.3 |
| 20260503110532 | 35 | 90 | 1.7 | 7.0 | 0.00 | 0.00 | 0.00 | 80 | 1010.7 |
| 20260503081546 | 32 | 0 | 0.0 | 2.6 | 0.00 | 0.01 | 0.00 | 84 | 1010.3 |
| 20260503081031 | 32 | 0 | 0.0 | 3.5 | 0.00 | 0.01 | 0.00 | 85 | 1010.4 |
| 20260503080533 | 32 | 0 | 0.9 | 3.5 | 0.00 | 0.01 | 0.00 | 84 | 1010.4 |
| 20260503072533 | 32 | 0 | 0.0 | 1.7 | 0.00 | 0.01 | 0.00 | 85 | 1010.3 |
| 20260503072032 | 32 | 304 | 0.0 | 1.7 | 0.00 | 0.01 | 0.00 | 85 | 1010.4 |
| 20260503071549 | 32 | 304 | 0.0 | 2.6 | 0.00 | 0.01 | 0.00 | 85 | 1010.4 |